sat.trackr.live / text

‹ back to catalog

FLOCK 4H-14

NORAD 66717 · 2025-276BD

PAYLOAD ACTIVE UNKNOWN

§ Identity

Operator
Country
US
Launch date
2025-11-28
Launch site
AFWTR
Launch vehicle
Mass (kg)
RCS (m²)

Purposes: earth_obs

External: N2YO · Heavens-Above · Gunter

§ Orbital elements

Epoch: 2026-09-18T23:26:05.407872Z

Period
94.60 min
Inclination
97.4126°
Eccentricity
0.0001281
Mean motion
15.22133711 rev/d
Perigee alt
498.5 km
Apogee alt
500.3 km
Semi-major
6,877.5 km
B*
2.2767e-4
RAAN
334.5030°
Arg perigee
56.8566°
Mean anomaly
303.2793°
Rev number
4,395

§ Raw data

FLOCK 4H-141 66717U 25276BD  26261.97645148  .00005149  00000+0  22767-3 0  99952 66717  97.4126 334.5030 0001281  56.8566 303.2793 15.22133711 43958

JSON: /api/v1/satellites/66717 · /tle

For live sub-satellite position, see the globe view (requires WebGL).

§ Visibility from observer

Set your observer location to see the next 7 days of passes ≥ 10°. The values pass through the URL so the page stays shareable.

No JS? Fill the form by hand. The geolocation button needs JavaScript.